Regional Weather Roundup
Issued by NWS

Home | Current Version | Previous Version | Graphics & Text | Print | Product List | Glossary On
Versions: 1 2 3 4 5 6 7 8 9 10 11 12 13 14 15 16 17 18 19 20 21 22 23 24 25 26 27 28 29 30 31 32 33 34 35 36 37 38 39 40 41 42 43 44 45 46 47 48 49 50
000
ASUS43 KMKX 310621
RWRWI

WISCONSIN REGIONAL WEATHER ROUNDUP
NATIONAL WEATHER SERVICE MILWAUKEE/SULLIVAN WI
100 AM CDT FRI OCT 31 2014

NOTE: "FAIR" INDICATES FEW OR NO CLOUDS BELOW 12,000 FEET WITH NO
SIGNIFICANT WEATHER AND/OR OBSTRUCTIONS TO VISIBILITY.

WIZ001-002-006>008-014>016-023>028-310700-
NORTHWEST WISCONSIN

CITY           SKY/WX    TMP DP  RH WIND       PRES   REMARKS
SUPERIOR ARPT  PTCLDY    30  19  61 N8G17     30.40R WCI  23
6HR MIN TEMP:  30; 6HR MAX TEMP:  35;

ASHLAND        CLOUDY    32  22  66 N20G29    30.32R WCI  20
6HR MIN TEMP:  31; 6HR MAX TEMP:  38; 6HR PCP:  0.03;

HAYWARD        CLOUDY    31  21  66 N13G23    30.30R WCI  21
6HR MIN TEMP:  29; 6HR MAX TEMP:  38; 6HR PCP:  0.01;

SIREN          CLEAR     29  18  63 N12G20    30.37R WCI  20
6HR MIN TEMP:  29; 6HR MAX TEMP:  39;

CUMBERLAND     PTCLDY    28  19  69 N21G29    30.30R WCI  15
RICE LAKE      MOCLDY    30  21  68 N10G21    30.31R WCI  21
6HR MIN TEMP:  30; 6HR MAX TEMP:  42; 6HR PCP:  0.01;

CHETEK         CLOUDY    31  22  68 NW16G25   30.29R WCI  20
6HR MIN TEMP:  31; 6HR MAX TEMP:  42;

LADYSMITH      CLOUDY    31  26  81 N21G26    30.25R WCI  19
6HR MIN TEMP:  31; 6HR MAX TEMP:  41;

EAU CLAIRE     CLEAR     31  18  58 NW17G26   30.27R WCI  19
6HR MIN TEMP:  31; 6HR MAX TEMP:  43; 6HR PCP: TRACE;

MENOMONIE      CLEAR     32  19  57 NW18G28   30.31R WCI  20
6HR MIN TEMP:  32; 6HR MAX TEMP:  43;

NEW RICHMOND   CLEAR     29  17  59 N20G25    30.35R WCI  17
6HR MIN TEMP:  29; 6HR MAX TEMP:  42;

OSCEOLA        CLEAR     30  18  60 N10G20    30.41R WCI  21
6HR MIN TEMP:  30; 6HR MAX TEMP:  41;

$$

WIZ003>005-009-010-017-018-310700-
NORTH CENTRAL WISCONSIN

CITY           SKY/WX    TMP DP  RH WIND       PRES   REMARKS
MANITOWISH WTR LGT SNOW  29  27  90 N15G21    30.16R WCI  18
6HR MIN TEMP:  29; 6HR MAX TEMP:  37; 6HR PCP:  0.09;

ARBOR VITAE    LGT SNOW  32  30  92 N23G31    30.14R VSB 1   WCI  19
6HR MIN TEMP:  32; 6HR MAX TEMP:  39; 6HR PCP:  0.04;

WOODRUFF       LGT SNOW  32  30  92 N23G31    30.14R VSB 1   WCI  19
6HR MIN TEMP:  32; 6HR MAX TEMP:  39; 6HR PCP:  0.04;

RHINELANDER    LGT SNOW  30  27  88 N17G33    30.11R FOG     WCI  18
6HR MIN TEMP:  30; 6HR MAX TEMP:  38; 6HR PCP:  0.09;

EAGLE RIVER    LGT SNOW  30  29  96 N14G22    30.10R VSB 1   WCI  20
6HR MIN TEMP:  30; 6HR MAX TEMP:  37; 6HR PCP:  0.02;

LAND O LAKES   LGT SNOW  31  29  92 N16G31    30.12R WCI  20
6HR MIN TEMP:  31; 6HR MAX TEMP:  37; 6HR PCP:  0.01;

PHILLIPS       CLOUDY    29  26  86 N10G23    30.19R WCI  20
6HR MIN TEMP:  29; 6HR MAX TEMP:  37;

TOMAHAWK       LGT SNOW  30  28  92 NW10G22   30.12R WCI  21
6HR MIN TEMP:  30; 6HR MAX TEMP:  39;

MEDFORD        LGT SNOW  29  26  89 NW15G25   30.14R WCI  18
6HR MIN TEMP:  29; 6HR MAX TEMP:  40;

MERRILL        LGT SNOW  31  30  96 N13       30.10R VSB 3/4 WCI  21
6HR MIN TEMP:  31; 6HR MAX TEMP:  41;

$$

WIZ029-030-035-036-043>047-310700-
CENTRAL WISCONSIN

CITY           SKY/WX    TMP DP  RH WIND       PRES   REMARKS
WAUSAU         CLOUDY    34  26  72 N17G29    30.09R WCI  23
6HR MIN TEMP:  34; 6HR MAX TEMP:  42; 6HR PCP: TRACE;

MOSINEE        CLOUDY    32  28  86 NW18G24   30.11S WCI  20
MARSHFIELD     CLOUDY    33  25  72 NW22G35   30.14R WCI  21
6HR MIN TEMP:  33; 6HR MAX TEMP:  44; 6HR PCP: TRACE;

STEVENS POINT  LGT RAIN  33  27  79 NW14G22   30.10S WCI  23
6HR MIN TEMP:  33; 6HR MAX TEMP:  42;

WAUPACA        CLOUDY    39  31  72 NW13G22   30.07S WCI  32
6HR MIN TEMP:  39; 6HR MAX TEMP:  48;

WAUTOMA        CLOUDY    37  32  82 NW21G31   30.10R WCI  26
6HR MIN TEMP:  37; 6HR MAX TEMP:  47; 6HR PCP: TRACE;

WISC RAPIDS    CLOUDY    35  27  72 NW15G30   30.14R WCI  25
6HR MIN TEMP:  35; 6HR MAX TEMP:  46; 6HR PCP: TRACE;

CAMP DOUGLAS   PTCLDY    36  26  65 NW21G30   30.16R WCI  25
6HR MIN TEMP:  36; 6HR MAX TEMP:  45; 6HR PCP: TRACE;

$$

WIZ011>013-019>022-031-037>040-048>050-310700-
NORTHEAST WISCONSIN

CITY           SKY/WX    TMP DP  RH WIND       PRES   REMARKS
ANTIGO         LGT SNOW  32  31  98 NW10G17   30.05S VSB 1   WCI  23
6HR MIN TEMP:  32; 6HR MAX TEMP:  40;

SHAWANO        CLOUDY    39  31  73 NW10G17   30.05S WCI  32
6HR MIN TEMP:  39; 6HR MAX TEMP:  47;

OCONTO         CLOUDY    38  32  77 NW9       30.01S WCI  32
6HR MIN TEMP:  38; 6HR MAX TEMP:  45;

STURGEON BAY   CLOUDY    39  30  70 NW14      29.99S WCI  31
6HR MIN TEMP:  41; 6HR MAX TEMP:  45;

GREEN BAY      CLOUDY    40  32  73 NW14G22   30.03R WCI  32
6HR MIN TEMP:  40; 6HR MAX TEMP:  46;

MANITOWOC      CLOUDY    43  32  65 NW20G25   30.00S
6HR MIN TEMP:  43; 6HR MAX TEMP:  47;

APPLETON       CLOUDY    37  30  75 NW14      30.04S WCI  29
CLINTONVILLE   CLOUDY    37  30  75 NW12G18   30.06R WCI  30
OSHKOSH        CLOUDY    41  30  65 NW20G31   30.03S
6HR MIN TEMP:  41; 6HR MAX TEMP:  47;

$$

WIZ032>034-041-042-053>061-310700-
SOUTHWEST WISCONSIN

CITY           SKY/WX    TMP DP  RH WIND       PRES   REMARKS
LA CROSSE      CLOUDY    39  21  48 N21G28    30.23R WCI  29
6HR MIN TEMP:  39; 6HR MAX TEMP:  49;

SPARTA         CLOUDY    35  26  70 NW13G18   30.21R WCI  26
6HR MIN TEMP:  35; 6HR MAX TEMP:  46; 6HR PCP:  0.01;

VIROQUA        CLOUDY    35  23  61 N23G30    30.18R WCI  23
6HR MIN TEMP:  35; 6HR MAX TEMP:  43;

BOSCOBEL       CLOUDY    44  26  49 NW14G26   30.16R
6HR MIN TEMP:  44; 6HR MAX TEMP:  49;

PRAIRIE DU CHI MOCLDY    42  23  47 NW17G23   30.17R
6HR MIN TEMP:  42; 6HR MAX TEMP:  47;

PLATTEVILLE    CLOUDY    43  31  61 NW14G21   30.13R
6HR MIN TEMP:  43; 6HR MAX TEMP:  47;

$$

WIZ056-057-062-063-064-067-068-310700-
SOUTH CENTRAL WISCONSIN

CITY           SKY/WX    TMP DP  RH WIND       PRES   REMARKS
REEDSBURG      MIX PCPN  38  27  65 NW24G38   30.12R WCI  27
6HR MIN TEMP:  38; 6HR MAX TEMP:  45;

BARABOO/DELLS  MIX PCPN  39  29  68 NW14G21   30.11R WCI  31
6HR MIN TEMP:  39; 6HR MAX TEMP:  45;

LONE ROCK      CLOUDY    47  29  49 NW15      30.12S
6HR MIN TEMP:  47; 6HR MAX TEMP:  51;

MINERAL POINT  CLOUDY    43  30  61 NW8       30.10S
MADISON        CLOUDY    43  30  60 NW14G20   30.09R
6HR MIN TEMP:  43; 6HR MAX TEMP:  47; 6HR PCP: TRACE;

MIDDLETON      CLOUDY    43  30  59 NW12G18   30.09R
6HR MIN TEMP:  43; 6HR MAX TEMP:  47;

WATERTOWN      CLOUDY    42  32  67 NW13G23   30.04S
6HR MIN TEMP:  42; 6HR MAX TEMP:  46;

MONROE         CLOUDY    43  32  65 NW13G21   30.07S
JANESVILLE     CLOUDY    45  32  61 NW13G22   30.05R
$$

WIZ051-052-058>065-066-070>072-310700-
SOUTHEAST WISCONSIN

CITY           SKY/WX    TMP DP  RH WIND       PRES   REMARKS
MILWAUKEE      LGT RAIN  45  32  60 NW14G24   30.02S
6HR MIN TEMP:  45; 6HR MAX TEMP:  49; 6HR PCP: TRACE;

WAUKESHA       CLOUDY    41  32  70 NW14      30.03S
MILWAUKEE/TIMM CLOUDY    43  32  65 NW10      30.03S
RACINE         CLOUDY    45  36  70 NW15G22   30.03S
6HR MIN TEMP:  45; 6HR MAX TEMP:  49; 6HR PCP: TRACE;

BURLINGTON     DRIZZLE   42  35  79 NW17      30.03R
6HR MIN TEMP:  40; 6HR MAX TEMP:  44;

KENOSHA        CLOUDY    45  38  76 NW13      30.02S
6HR MIN TEMP:  42; 6HR MAX TEMP:  46; 6HR PCP: TRACE;

FOND DU LAC    MOCLDY    41  32  70 NW12      30.04R
6HR MIN TEMP:  40; 6HR MAX TEMP:  47;

SHEBOYGAN      CLOUDY    43  32  65 NW12G21   30.00S
6HR MIN TEMP:  43; 6HR MAX TEMP:  46;

WEST BEND      PTCLDY    41  32  70 NW12G18   30.02S
JUNEAU         CLOUDY    41  32  69 NW7       30.06R
6HR MIN TEMP:  41; 6HR MAX TEMP:  46;

$$

LSZ147-162-310700-
LAKE SUPERIOR

STATION/POSITION TIME  TEMP    WIND        PRES    WAVE
                       AIR SEA DIR/SP/G            HT/PER
                 (UTC) (F)     (DEG/KT/KT) (MB)    (FT/S)
W MID LAKE BUOY  0550   35 44  360/ 27/ 33 1024.9R   9/ 7
DEVILS ISLAND    0600   34      10/ 27/ 30 1027.9R
PORT WING        0500   35     360/ 26/ 32 1027.4
SAXON HARBOR     0602   37      10/ 23     1026.1R
$$

LMZ867-665-643>646-310700-
LAKE MICHIGAN




USA.gov is the U.S. government's official web portal to all federal, state and local government web resources and services.